Hourly Data Report for December 02, 2019

All times are specified in Local Standard Time (LST). Add 1 hour to adjust for Daylight Saving Time where and when it is observed.

OTTAWA INTL A
ONTARIO
Current Station Operator: NAVCAN

45°19'00.000" N
75°40'00.000" W
114.90 m
6106001
71628
YOW

Download Data

Hourly Data (December 2019)
Hourly Data Report for December 2, 2019
TIME Temp Definition
°C
Dew Point Definition
°C
Rel Hum Definition
%
Wind Dir Definition
10's deg

Wind Spd Definition
km/h
Visibility Definition
km
Stn Press Definition
kPa
Hmdx Definition


Wind Chill Definition


Weather Definition


00:00 -5.2 -10.9 64 6 30 24.1 99.51   -13 Snow
01:00 -4.7 -10.9 62 5 26 24.1 99.48   -12 Cloudy
02:00 -4.7 -11.0 62 5 25 24.1 99.50   -12 LegendNANA
03:00 -4.5 -10.8 62 5 22 24.1 99.50   -11 LegendNANA
04:00 -4.3 -11.0 59 5 22 24.1 99.56   -11 Mostly Cloudy
05:00 -4.2 -10.7 61 3 21 24.1 99.59   -11 LegendNANA
06:00 -4.5 -11.0 61 4 23 24.1 99.60   -11 LegendNANA
07:00 -5.4 -11.9 61 4 21 24.1 99.62   -12 Mainly Clear
08:00 -6.0 -12.7 59 5 22 24.1 99.72   -13 LegendNANA
09:00 -4.8 -13.0 53 4 28 24.1 99.73   -12 LegendNANA
10:00 -3.4 -13.3 47 4 27 24.1 99.76   -11 Mainly Clear
11:00 -2.5 -14.1 41 6 26 80.5 99.75   -9 LegendNANA
12:00 -0.9 -13.8 37 5 12 24.1 99.72   -5 LegendNANA
13:00 0.6 -14.3 32 5 21 24.1 99.66     Clear
14:00 1.6 -16.8 24 5 29 24.1 99.64     LegendNANA
15:00 1.6 -15.8 26 3 23 24.1 99.65     LegendNANA
16:00 0.2 -13.4 35 2 19 24.1 99.68     Clear
17:00 -1.6 -12.7 43 2 15 24.1 99.75   -6 LegendNANA
18:00 -2.4 -11.4 50 1 16 24.1 99.77   -8 LegendNANA
19:00 -2.9 -11.1 53 1 18 24.1 99.80   -9 Clear
20:00 -3.5 -11.0 56 36 17 24.1 99.79   -9 LegendNANA
21:00 -4.3 -11.8 56 36 16 24.1 99.81   -10 LegendNANA
22:00 -4.9 -11.5 60 34 15 24.1 99.82   -10 Clear
23:00 -5.4 -10.4 68 35 16 24.1 99.79   -11 LegendNANA

Notes on Data Quality.

Legend

  • E = Estimated
  • M = Missing
  • NA = Not Available
Date modified: